Location: Kumla
(59.1265°N, 15.1401°E)
Time: 14:31:38
(UTC+01:00)

Vanguard 1 Rocket - Pass Details

Date: 11 December 2023
Orbit: 654 x 4218 km, 34.3° (Epoch: 21 February)

Event Time Altitude Azimuth Distance (km) Brightness Sun altitude
Exits shadow 05:52:53 - 245° (WSW) 8,031 11.7 -19.5°
Reaches altitude 10° 05:58:58 10° 237° (WSW) 6,896 11.5 -18.8°
Maximum altitude 06:14:24 27° 191° (SSW) 4,383 10.9 -16.8°
Drops below altitude 10° 06:24:34 10° 141° (SE) 4,464 11.8 -15.6°
Sets 06:28:04 0° 129° (SE) 5,008 12.6 -15.2°
